Printer-friendly version

IAU Minor Planet Center

Minor Planet Center

MPEC 2003-J36 : 2003 JD11

The following Minor Planet Electronic Circular may be linked-to from your own Web pages, but must not otherwise be redistributed electronically.


Read MPEC 2003-J35 Read MPEC 2003-J37


M.P.E.C. 2003-J36                                Issued 2003 May 6, 19:51 UT

     The Minor Planet Electronic Circulars contain information on unusual
         minor planets and routine data on comets.  They are published
   on behalf of Commission 20 of the International Astronomical Union by the
          Minor Planet Center, Smithsonian Astrophysical Observatory,
                          Cambridge, MA 02138, U.S.A.

             Prepared using the Tamkin Foundation Computer Network

                              MPC@CFA.HARVARD.EDU
          URL http://cfa-www.harvard.edu/iau/mpc.html  ISSN 1523-6714

                                   2003 JD11

Observations:
     K03J11D* C2003 05 05.26468 14 07 32.61 -02 55 24.8          18.2        704
     K03J11D  C2003 05 05.26515 14 07 32.67 -02 55 16.0          18.8        704
     K03J11D  C2003 05 05.27719 14 07 33.23 -02 51 50.1          19.0        704
     K03J11D  C2003 05 05.28886 14 07 33.80 -02 48 30.8          18.3        704
     K03J11D  C2003 05 05.28932 14 07 33.84 -02 48 22.6          18.9        704
     K03J11D  C2003 05 05.30076 14 07 34.43 -02 45 05.6          17.9        704
     K03J11D  C2003 05 05.30123 14 07 34.48 -02 44 58.0          18.7        704
     K03J11D  C2003 05 05.31266 14 07 35.06 -02 41 40.4          18.7        704
     K03J11D  C2003 05 05.31313 14 07 35.14 -02 41 32.4          19.0        704
     K03J11D  C2003 05 05.84765 14 08 49.37 +00 05 39.7                      246
     K03J11D  C2003 05 05.84870 14 08 49.47 +00 06 01.8                      246
     K03J11D  C2003 05 05.84898 14 08 49.49 +00 06 07.1                      246
     K03J11D  C2003 05 05.85103 14 08 49.69 +00 06 48.5                      246
     K03J11D  C2003 05 05.85157 14 08 49.74 +00 07 00.3                      246
     K03J11D  C2003 05 05.85198 14 08 49.78 +00 07 09.3                      246
     K03J11D  C2003 05 05.85287 14 08 49.86 +00 07 27.1                      246
     K03J11D  C2003 05 05.88716 14 08 54.80 +00 19 10.9          18.1 R      J95
     K03J11D  C2003 05 05.88933 14 08 55.01 +00 19 54.9          18.3 R      J95
     K03J11D  C2003 05 05.89502 14 08 53.02 +00 22 00.6          17.9 R      118
     K03J11D  C2003 05 05.89866 14 08 53.39 +00 23 17.3                      118
     K03J11D  C2003 05 05.90244 14 08 53.75 +00 24 36.9                      118
     K03J11D  C2003 05 05.91790 14 08 57.71 +00 29 51.5          18.1 R      J95
     K03J11D  C2003 05 05.92527 14 08 58.34 +00 32 25.9          18.4 R      J95
     K03J11D  C2003 05 05.95464 14 09 01.16 +00 42 46.1          18.1 R      966
     K03J11D  C2003 05 05.95877 14 09 01.56 +00 44 13.6          18.5 R      966
     K03J11D  C2003 05 05.96322 14 09 01.98 +00 45 47.7          18.2 R      966
     K03J11D  C2003 05 06.18186 14 09 37.13 +02 06 55.1          18.1 R      649
     K03J11D  C2003 05 06.18266 14 09 37.22 +02 07 13.6          18.0 R      649
     K03J11D  C2003 05 06.18345 14 09 37.28 +02 07 31.9          18.1 R      649
     K03J11D  C2003 05 06.18425 14 09 37.38 +02 07 49.8          18.0 R      649
     K03J11D  C2003 05 06.23133 14 09 44.83 +02 26 19.0          19.1 R      854
     K03J11D  C2003 05 06.23217 14 09 44.84 +02 26 38.7          19.0 R      854
     K03J11D  C2003 05 06.23304 14 09 44.99 +02 26 58.5          18.4 R      854
     K03J11D  C2003 05 06.23389 14 09 45.06 +02 27 17.8          19.0 R      854
     K03J11D  C2003 05 06.26636 14 09 46.88 +02 39 55.7          18.3        704
     K03J11D  C2003 05 06.27912 14 09 47.98 +02 44 57.7          18.7        704
     K03J11D  C2003 05 06.28047 14 09 48.98 +02 45 37.5          18.1 R      926
     K03J11D  C2003 05 06.28079 14 09 49.03 +02 45 43.4          17.8 R      926
     K03J11D  C2003 05 06.28138 14 09 49.05 +02 45 59.2          18.0 R      926
     K03J11D  C2003 05 06.29183 14 09 49.09 +02 49 59.2          18.6        704
     K03J11D  C2003 05 06.45179 14 10 20.43 +03 59 45.7          17.6 R      474
     K03J11D  C2003 05 06.45260 14 10 20.54 +04 00 07.8          17.9 R      474
     K03J11D  C2003 05 06.45365 14 10 20.65 +04 00 33.9          17.7 R      474
     K03J11D  C2003 05 06.45469 14 10 20.73 +04 00 59.9          17.8 R      474
     K03J11D  C2003 05 06.55903 14 10 32.05 +04 45 39.8          16.7 R      474
     K03J11D  C2003 05 06.56493 14 10 32.71 +04 48 16.4          16.8 R      474
     K03J11D  C2003 05 06.56632 14 10 32.89 +04 48 50.6          16.7 R      474
     K03J11D  C2003 05 06.57014 14 10 33.29 +04 50 30.7          16.9 R      474

Observer details:
118 Modra.  Observers A. Galad, S. Gajdos.  0.6-m f/5.5 reflector + CCD.
246 Klet Observatory-KLENOT.  Observer M. Tichy.  1.06-m KLENOT Telescope
    + CCD.
474 Mount John Observatory, Lake Tekapo.  Observers A. C. Gilmore,
    P. M. Kilmartin.  1.0-m f/7.7 reflector + CCD.
649 Powell Observatory, Louisburg.  Observers R. Fredrick, M. Glaze,
    R. Trentman.  0.75-m Newtonian + CCD.
704 Lincoln Laboratory ETS, New Mexico.  Observers M. Blythe, F. Shelly,
    M. Bezpalko, R. Huber, L. Manguso, S. Adams, D. Torres, T. Brothers,
    S. Partridge.  Measurers J. Stuart, R. Sayer, J. Evans, P. Hopman.  1.0-m
    f/2.15 reflector + CCD.
854 Sabino Canyon Observatory, Tucson.  Observer J. E. McGaha.  0.30-m f/10.0
    Schmidt-Cassegrain + CCD.
926 Tenagra II Observatory.  Observers P. R. Holvorcem, M. Schwartz.  0.81-m
    f/7 Ritchey-Chretien + CCD.
966 Church Stretton.  Observer S. P. Laurie.  0.35-m Schmidt-Cassegrain + CCD.
J95 Great Shefford.  Observer P. Birtwhistle.  0.30-m f/6.3 Schmidt-Cassegrain
    + CCD.

Orbital elements:
2003 JD11
Epoch 2003 June 10.0 TT = JDT 2452800.5                 MPC
M 353.46477              (2000.0)            P               Q
n   0.42343652     Peri.   74.90518     +0.42682400     +0.89913857
a   1.7563478      Node   220.80286     -0.87616179     +0.38464018
e   0.5456027      Incl.    8.51925     -0.22396826     +0.20881035
P   2.33           H   24.1           G   0.15           U   7
Residuals in seconds of arc
030505 704  0.0   0.6-    030505 J95  0.5-  1.0+    030506 854  0.4+  0.0
030505 704  0.6+  0.2+    030505 J95  0.4-  0.1-    030506 854  0.4+  0.6-
030505 704  0.1-  0.5+    030505 118  1.3-  0.1+    030506 704  0.4-  0.4-
030505 704  0.3-  0.2-    030505 118  0.3-  1.0+    030506 704  0.2-  0.2-
030505 704  0.1-  0.1+    030505 118  0.3+  1.7+    030506 926  0.1+  0.0
030505 704  0.1-  0.3+    030505 J95  0.2+  0.1-    030506 926  0.5+  1.7-
030505 704  0.3+  0.2-    030505 J95  0.5-  0.6-    030506 926  0.0   0.1+
030505 704  0.0   0.1-    030505 966  0.5-  1.2+    030506 704  0.0   0.6-
030505 704  0.8+  0.2-    030505 966  0.2-  0.9+    030506 474  0.0   1.0-
030505 246  0.3-  0.7-    030505 966  0.0   0.3+    030506 474  0.3+  0.7+
030505 246  0.2-  0.2-    030506 649  0.1-  0.0     030506 474  0.3+  0.3+
030505 246  0.3-  0.6-    030506 649  0.2+  0.2+    030506 474  0.2-  0.1+
030505 246  0.1-  1.3-    030506 649  0.0   0.3+    030506 474  0.1+  0.4-
030505 246  0.1-  0.6-    030506 649  0.5+  0.1-    030506 474  0.2-  1.8+
030505 246  0.0   0.0     030506 854  0.2+  0.4+    030506 474  0.1+  0.4-
030505 246  0.0   0.5-    030506 854  0.7-  0.5+    030506 474  0.6-  0.4-

Ephemeris:
2003 JD11                a,e,i = 1.76, 0.55, 9                   q = 0.7981
Date    TT    R. A. (2000) Decl.     Delta      r     Elong.  Phase     V
2003 05 01    14 02.87   -14 52.7    0.083    1.090   173.2     6.3    19.4
2003 05 02    14 03.56   -13 03.5    0.075    1.082   172.1     7.3    19.2
2003 05 03    14 04.43   -10 47.3    0.066    1.074   170.4     9.0    19.0
2003 05 04    14 05.57   -07 53.6    0.058    1.065   168.0    11.3    18.8
2003 05 05    14 07.06   -04 06.0    0.051    1.057   164.6    14.7    18.6
2003 05 06    14 09.11   +01 01.3    0.043    1.049   159.9    19.3    18.4
2003 05 07    14 12.03   +08 10.3    0.036    1.041   153.1    26.0    18.2
2003 05 08    14 16.49   +18 25.3    0.030    1.033   143.2    35.8    18.0
2003 05 09    14 24.04   +33 03.3    0.025    1.026   129.0    49.9    18.0
2003 05 10    14 39.38   +52 13.5    0.023    1.018   110.1    68.7    18.4
2003 05 11    15 25.7    +72 29.1    0.024    1.010    89.8    88.9    19.1
2003 05 12    20 53.3    +83 55.6    0.027    1.002    72.7   105.8    20.2
2003 05 13    00 38.2    +74 47.1    0.032    0.995    60.5   117.9    21.3
2003 05 14    01 13.43   +66 19.4    0.039    0.987    52.2   126.0    22.4
2003 05 15    01 26.60   +60 11.8    0.046    0.980    46.6   131.5    23.2
2003 05 16    01 33.51   +55 41.9    0.054    0.972    42.7   135.1    23.9
2003 05 17    01 37.83   +52 17.8    0.061    0.965    40.0   137.6    24.5
2003 05 18    01 40.84   +49 38.9    0.069    0.958    38.1   139.3    25.0
2003 05 19    01 43.11   +47 32.0    0.078    0.951    36.8   140.4    25.3
2003 05 20    01 44.92   +45 48.4    0.086    0.944    35.8   141.1    25.6
2003 05 21    01 46.45   +44 22.1    0.094    0.937    35.2   141.5    25.9

Kyle E. Smalley              (C) Copyright 2003 MPC           M.P.E.C. 2003-J36

Read MPEC 2003-J35 Read MPEC 2003-J37


Our Web policy. Index to the CBAT/MPC/ICQ pages.


Valid HTML 4.01!